Theta_e
310 301 298 298 301 303 305 306 305 304 304 303 300 297 296 295 296 299 298 299 302 297 296 296 298 298 299 300 302 303 302 297 297 298 298 299 299 300 300 302 306 308 311 313 315 318 319 322 324 325 325 325 325 326 326 326 326 326 326 324 324 324 324 323 323 322 322 321 321 321 322 322 322 322 323 324 324 324 324 324 324 324 325 325 324 323
308 300 299 303 305 305 305 306 306 305 306 301 298 297 295 296 295 298 296 295 298 296 293 295 295 296 298 299 300 300 299 299 298 297 297 298 299 299 299 299 304 307 309 309 309 314 318 319 322 324 324 322 323 324 325 326 326 327 327 326 326 325 325 324 324 323 322 322 323 322 322 323 322 321 321 323 323 324 324 324 324 324 325 326 325 323
299 297 302 305 306 306 306 306 306 304 303 301 298 296 294 294 297 296 294 297 298 297 292 293 293 296 298 300 302 302 302 301 301 301 301 300 300 300 300 300 301 304 307 307 310 312 317 318 320 323 323 324 325 325 325 326 326 326 326 326 326 326 326 326 325 325 323 323 323 323 323 323 321 323 323 324 324 323 324 324 324 325 325 326 325 324
294 299 303 306 306 305 304 304 304 303 302 298 296 294 292 293 295 291 293 295 298 295 292 292 291 293 295 297 298 301 301 302 303 302 302 303 303 302 302 301 301 301 305 306 307 309 314 318 319 321 322 324 325 324 324 325 325 326 325 326 326 326 327 326 326 323 326 325 325 324 324 324 324 323 322 323 322 323 323 324 325 325 325 326 325 325
297 302 306 305 305 304 302 302 302 300 298 299 297 294 294 295 296 295 291 292 295 295 295 292 291 293 294 295 298 299 301 302 304 303 303 302 302 304 305 303 302 302 302 304 307 308 310 315 318 320 322 324 323 324 324 325 325 326 326 326 326 327 326 327 325 324 325 324 323 324 323 321 321 320 321 322 322 323 323 324 324 325 325 326 326 325
299 304 306 304 303 303 302 300 301 300 296 297 299 299 297 297 296 295 294 293 289 288 291 292 283 282 287 291 293 296 296 297 301 302 303 304 303 300 299 301 302 302 302 303 305 308 310 314 318 320 321 322 323 324 325 326 326 326 326 326 326 327 327 327 326 326 325 324 324 323 322 321 322 322 322 322 322 322 322 323 325 325 326 326 326 326
300 304 305 302 302 301 301 300 301 301 297 295 296 301 301 299 296 295 294 293 285 284 290 293 287 281 287 291 293 294 294 296 298 297 301 303 304 303 302 301 301 302 302 301 302 306 308 311 315 318 320 321 322 323 325 325 325 326 326 326 326 327 326 327 326 326 324 324 324 324 324 323 323 322 323 325 325 325 325 324 324 325 325 326 326 326
301 301 301 302 301 299 297 297 300 301 297 294 299 302 301 299 296 294 293 291 286 288 292 291 288 282 286 292 296 298 296 297 298 299 298 300 301 302 303 303 301 302 303 303 302 303 307 310 313 317 319 320 322 323 323 323 324 324 325 325 325 326 325 326 326 325 325 324 324 324 324 323 323 323 323 323 324 325 324 324 324 324 325 326 326 327
302 299 300 298 298 297 296 299 301 303 298 296 300 302 301 300 296 294 291 289 290 288 285 286 291 286 282 288 292 293 293 295 297 298 299 300 300 300 302 302 302 302 303 303 302 301 302 305 308 313 317 320 321 322 321 322 323 324 324 323 324 325 325 325 324 325 325 324 324 324 324 323 323 324 323 321 321 322 322 323 324 324 324 325 326 327
301 301 302 301 298 295 299 300 302 304 298 298 300 301 299 296 294 293 286 287 286 284 283 285 289 284 283 286 291 291 292 294 296 298 299 301 301 301 300 300 301 301 301 300 301 302 302 302 304 308 313 316 319 320 320 321 321 321 321 321 321 324 325 325 324 324 325 324 322 323 323 322 323 322 322 319 320 321 321 322 323 324 324 325 325 326
298 304 305 302 298 299 299 301 303 304 301 300 300 297 295 292 289 286 285 282 283 283 283 287 289 287 281 284 290 289 291 294 295 296 298 300 301 301 301 300 300 299 298 299 299 299 300 301 302 302 307 312 315 316 317 318 320 320 321 321 321 323 324 324 324 323 323 324 323 323 323 322 322 322 321 321 321 322 320 322 323 323 325 325 325 325
299 301 300 299 302 300 302 299 302 304 301 300 293 292 293 289 289 285 285 286 282 280 281 286 289 289 282 281 289 294 293 292 295 296 298 296 296 297 297 297 298 299 299 299 298 298 298 299 299 299 300 303 311 314 316 317 319 319 320 321 320 321 322 323 323 323 323 323 323 323 323 322 322 322 321 321 321 321 321 321 322 323 323 324 325 325
294 297 297 297 299 301 297 296 295 299 298 297 294 294 289 283 285 280 283 282 282 279 282 281 285 285 287 289 290 291 292 293 293 294 296 295 295 295 295 295 295 296 296 297 296 297 297 297 298 297 299 299 301 312 315 317 318 319 319 319 320 320 321 322 322 322 323 323 323 323 323 323 322 322 322 322 321 322 321 322 321 321 322 323 323 324
290 292 293 296 298 299 301 294 288 291 294 294 293 289 286 279 277 276 277 280 278 280 281 283 285 285 285 287 298 298 300 300 298 294 294 294 294 294 295 295 296 295 294 295 295 295 295 296 296 296 296 297 297 299 308 312 314 315 317 317 318 320 320 320 319 321 322 323 324 324 324 323 323 322 322 322 322 322 322 322 322 322 322 322 323 324
285 287 292 295 292 298 300 299 297 294 294 295 295 294 288 286 279 276 278 278 277 277 280 282 281 279 282 285 290 298 301 296 293 296 294 292 292 292 293 294 295 295 295 294 295 296 297 298 297 298 298 297 297 298 298 300 306 308 313 315 316 317 316 316 318 319 321 322 323 324 324 324 324 323 323 323 323 323 322 322 322 322 323 323 323 324
289 290 296 300 297 300 298 298 298 296 292 291 294 294 288 288 285 280 280 279 277 277 277 278 282 281 285 289 293 293 292 293 292 293 294 294 295 294 295 295 294 294 294 294 295 297 297 296 296 296 297 297 297 297 297 298 301 305 310 310 313 315 315 315 316 318 320 321 322 323 323 324 324 322 323 323 322 322 323 323 322 322 322 323 323 324
290 287 294 298 296 300 300 299 298 301 288 292 294 289 291 291 286 282 282 282 278 277 278 277 282 284 287 293 296 296 292 294 293 292 292 293 293 293 294 293 294 295 294 295 295 295 296 296 296 295 295 295 296 296 297 297 297 300 302 304 306 307 307 310 313 316 318 320 320 321 322 323 323 323 322 323 322 322 322 322 322 322 323 323 323 323
289 287 292 295 293 298 299 299 299 299 297 293 287 292 294 293 289 284 279 276 276 274 276 280 281 281 283 282 289 293 293 293 291 292 292 291 292 292 293 294 294 295 295 294 294 293 294 294 295 295 294 295 297 296 296 297 296 297 298 299 302 301 303 302 303 306 308 312 314 317 318 319 321 322 322 322 322 321 321 321 322 322 321 322 322 322
295 285 289 292 295 297 301 300 296 299 299 297 294 298 294 284 284 283 279 274 272 272 272 276 281 280 284 286 287 290 292 292 293 292 290 292 292 292 293 293 293 293 294 295 295 295 295 295 295 294 296 295 296 296 297 298 297 297 297 297 298 299 299 299 300 300 303 304 309 313 315 316 317 319 320 321 321 321 320 320 320 320 321 321 319 318
297 286 287 292 293 296 298 298 288 292 296 295 297 295 294 289 284 284 283 277 279 272 273 272 278 280 286 287 289 291 292 294 294 291 292 293 293 294 293 293 293 293 294 295 295 295 295 294 294 295 295 296 297 296 296 297 297 298 298 299 298 298 298 298 299 300 302 304 305 308 309 311 314 315 316 317 317 318 319 320 319 319 317 318 314 317
292 293 284 289 293 295 289 293 292 294 289 290 293 290 290 287 287 288 286 281 278 272 272 272 274 280 283 290 292 295 294 295 295 294 293 292 292 293 293 294 294 294 295 294 294 294 295 295 295 295 293 294 294 295 295 295 296 296 297 297 297 300 300 300 301 300 302 302 304 304 306 308 308 309 311 310 311 314 315 316 315 316 316 312 315 314
290 290 287 287 287 289 293 298 298 297 296 294 294 291 292 289 284 284 281 285 278 280 276 273 278 279 285 291 296 295 296 295 294 295 294 291 293 293 293 292 293 294 293 293 294 293 293 293 295 295 295 294 295 296 295 295 295 295 297 299 298 297 299 300 300 301 302 300 302 302 304 305 304 306 306 307 308 309 310 310 311 312 309 311 313 312
294 289 288 286 288 290 295 294 295 296 298 294 296 293 295 292 286 282 280 281 282 281 278 275 276 283 290 290 293 296 295 295 295 295 294 292 293 293 293 293 292 293 294 295 294 294 293 292 293 294 294 294 294 294 293 292 296 297 297 297 297 299 300 300 300 299 298 299 300 301 301 300 301 301 301 302 302 302 303 303 300 301 304 306 307 306
293 287 286 285 287 290 292 294 294 294 297 294 294 294 294 291 292 290 287 282 284 281 281 280 278 282 289 289 289 293 292 293 294 295 294 293 292 292 293 292 293 293 293 293 292 292 292 291 292 295 295 294 293 292 294 295 295 296 296 297 298 298 299 297 296 297 297 296 297 297 295 297 296 295 296 297 297 298 297 299 299 297 299 301 300 305
290 288 289 283 283 285 286 289 290 292 294 291 291 294 295 296 294 287 284 282 281 283 285 283 278 285 286 288 288 289 290 292 292 293 294 293 292 293 293 293 294 294 294 293 294 294 293 294 294 295 293 292 293 292 292 294 295 295 296 295 296 297 296 295 295 295 294 292 291 290 291 293 292 293 294 295 294 295 296 297 298 297 301 300 303 306
292 289 288 283 278 278 277 279 281 285 288 292 294 294 294 294 292 289 286 281 282 278 283 279 282 289 291 290 290 290 290 291 291 291 291 293 294 293 293 294 294 294 295 295 294 293 294 295 292 291 291 292 292 293 293 293 293 292 294 294 293 294 292 292 292 293 293 289 290 290 289 289 290 291 292 294 295 297 299 303 303 306 306 304 309 307
287 289 291 289 287 285 287 289 293 294 290 285 289 292 292 294 294 293 289 285 283 282 283 287 289 290 287 290 288 289 289 291 292 290 293 293 293 294 294 294 294 294 295 295 295 295 292 293 293 293 291 292 292 290 291 290 293 290 291 291 290 290 291 289 290 290 293 291 293 294 293 293 293 293 292 293 296 298 300 301 301 302 304 304 306 306
287 286 290 291 290 291 290 290 294 294 290 291 291 291 293 292 292 291 288 286 291 283 279 288 291 289 291 288 288 289 290 291 293 292 293 293 294 294 294 293 293 293 293 292 292 292 293 293 291 290 291 291 293 289 288 288 289 290 290 291 289 289 289 290 290 291 294 296 296 295 295 296 296 297 299 300 299 299 298 299 299 299 299 297 301 302
287 286 289 290 289 290 290 292 294 294 293 292 292 292 291 292 292 288 290 292 291 286 285 290 290 288 292 291 291 291 292 292 292 292 294 295 295 292 292 292 293 294 294 294 295 294 292 292 292 292 292 293 290 290 289 288 289 288 288 287 287 287 290 288 291 293 295 295 295 295 295 295 296 296 296 296 297 297 299 299 297 294 294 294 297 298
290 285 286 289 288 289 289 291 293 292 291 292 292 292 293 293 292 292 292 293 292 290 292 292 291 290 294 292 293 292 292 292 292 292 291 291 292 292 292 293 294 294 294 295 295 294 293 293 292 293 294 292 292 290 289 288 288 287 288 289 287 288 288 288 290 292 294 294 294 294 294 295 295 296 294 294 294 294 292 291 292 292 293 294 291 291
293 286 289 287 286 287 289 290 291 292 291 289 292 292 293 293 293 293 293 293 293 292 293 292 291 290 292 293 294 293 293 291 290 289 291 292 292 291 293 294 294 294 295 295 294 293 293 293 293 293 293 293 290 290 290 289 287 287 288 287 287 287 287 288 288 291 293 294 293 293 293 294 293 291 292 293 290 290 290 291 290 290 290 290 291 291
293 287 288 286 284 285 288 288 288 290 289 289 289 290 291 291 289 291 291 293 291 290 292 291 288 289 295 294 293 292 290 291 291 291 291 292 291 292 293 293 294 294 294 294 294 293 292 293 293 293 293 291 288 287 287 288 288 288 291 289 289 287 286 288 288 291 292 292 293 294 294 294 293 291 290 289 290 289 289 288 289 289 289 289 290 289
290 288 285 285 284 285 287 288 287 286 286 284 286 290 291 292 293 294 295 295 294 294 290 288 289 296 292 295 294 292 292 292 292 292 292 292 293 293 293 293 294 294 294 294 294 293 293 294 294 294 293 287 287 289 288 288 288 289 289 290 291 286 287 287 288 290 291 293 292 292 291 291 291 290 289 288 288 288 289 289 289 288 289 289 288 288
291 290 286 288 284 285 286 286 286 284 278 280 293 295 294 292 292 291 291 293 294 295 293 295 296 294 292 292 294 293 292 293 294 295 296 295 294 292 293 293 294 295 294 294 294 294 295 295 293 293 290 289 289 289 289 287 289 289 287 288 285 285 286 287 288 290 291 290 291 291 290 289 289 289 289 288 288 289 289 289 288 288 288 288 288 288
288 289 287 287 285 285 285 285 282 277 280 292 296 297 297 296 295 293 294 295 295 296 296 295 296 295 291 294 295 295 295 296 295 296 295 294 295 295 294 294 294 294 295 293 293 294 294 294 292 289 288 289 290 288 287 287 286 286 286 285 285 284 286 286 289 290 291 290 290 290 289 289 289 289 288 288 288 288 288 288 288 288 288 288 288 288
286 287 286 285 286 285 283 283 277 279 287 292 293 296 298 297 296 294 292 294 296 296 296 295 296 297 295 293 294 295 295 295 293 293 294 294 294 296 294 294 294 294 293 294 295 295 293 292 292 292 292 289 288 287 287 289 285 286 287 284 285 285 287 289 289 290 289 289 289 289 288 288 288 288 288 288 287 288 287 288 288 288 287 288 288 288
290 286 286 284 286 282 282 283 284 287 286 287 288 290 293 291 292 291 287 291 296 297 296 296 297 297 297 298 296 294 291 291 290 295 293 294 294 293 296 296 297 296 295 295 295 295 293 292 292 291 288 287 287 288 287 286 285 286 285 285 284 286 287 288 288 288 288 288 289 288 288 288 288 288 287 287 287 287 287 287 287 287 287 288 288 287
292 288 286 285 283 285 282 281 282 281 281 285 291 294 298 298 298 296 292 290 296 297 298 297 297 297 298 298 297 294 292 290 291 295 296 294 295 295 295 297 296 294 294 295 289 288 287 287 287 287 289 287 286 285 285 284 286 286 286 284 283 285 287 288 288 288 288 289 288 288 288 288 288 288 287 287 287 287 287 287 287 287 287 288 287 287
291 293 288 286 284 284 282 280 280 280 284 292 292 293 294 293 294 294 289 287 295 297 298 298 297 298 298 297 296 293 292 290 292 296 295 296 295 296 297 296 294 294 294 293 292 290 288 288 288 287 286 287 286 284 283 284 286 287 286 283 282 284 286 287 288 289 289 290 289 288 289 288 287 288 287 287 287 287 288 287 287 287 287 287 288 287
287 287 286 283 282 282 282 281 280 283 285 288 290 291 294 295 297 292 282 283 295 297 298 298 297 297 297 297 294 293 293 290 293 297 296 300 300 303 301 298 293 292 291 289 289 290 289 286 286 286 287 286 286 284 284 285 287 286 286 283 282 283 283 285 288 289 288 289 289 288 288 288 288 287 287 287 287 287 287 287 287 287 287 287 287 286
285 284 286 282 283 283 283 282 284 285 290 289 286 290 293 297 294 285 281 290 295 297 297 297 297 298 297 295 294 294 296 299 300 299 295 300 299 299 296 292 294 294 291 288 288 286 287 286 288 288 285 284 283 283 284 286 287 286 284 283 283 282 282 284 288 289 288 288 287 287 287 286 286 287 287 287 287 286 286 286 286 286 286 286 286 286
284 285 284 286 283 282 283 282 282 287 289 290 288 293 295 292 284 284 295 297 296 297 296 298 297 297 296 295 295 297 299 300 300 300 295 296 298 299 294 291 288 285 284 284 286 287 286 284 283 283 282 280 280 282 284 286 286 283 282 282 281 281 280 282 287 288 287 287 286 286 286 286 286 286 286 286 286 286 286 286 286 286 286 286 286 285
285 284 281 282 285 285 284 281 280 278 288 296 290 288 293 289 290 297 294 291 290 291 295 295 297 297 297 297 298 298 299 299 299 299 294 290 292 293 291 288 289 288 287 286 285 284 286 284 283 282 281 280 280 281 283 285 283 281 281 281 279 280 279 281 285 287 286 286 286 286 286 286 286 286 286 286 286 286 286 286 286 286 286 285 285 285
290 285 284 285 288 281 282 280 282 289 290 295 294 289 291 295 291 289 292 295 287 290 292 292 292 295 297 298 297 297 298 298 296 287 287 287 287 287 287 288 287 286 286 284 286 285 284 284 282 281 280 279 279 279 281 283 281 280 280 279 279 279 278 282 285 286 286 285 285 285 285 285 286 286 286 286 286 286 285 285 285 286 285 285 286 285
290 287 289 284 289 287 285 288 292 289 293 296 298 298 297 298 291 290 293 295 290 290 288 292 293 292 294 297 297 297 297 297 294 289 291 289 288 287 287 286 286 286 286 285 284 283 283 283 281 280 279 278 277 278 279 280 281 280 280 279 278 277 279 281 284 285 284 284 285 285 285 285 285 285 286 286 286 286 285 285 285 285 285 285 285 285
293 293 291 290 288 292 293 293 293 292 287 292 293 292 295 298 292 285 289 289 288 291 290 292 292 293 294 295 296 295 295 296 293 286 288 288 287 285 284 284 283 282 283 283 282 282 281 280 279 279 277 276 276 276 276 276 279 279 278 278 276 276 279 279 279 278 278 279 282 282 283 284 285 285 285 285 286 286 285 285 285 285 285 285 285 285
285 289 290 288 287 289 285 293 292 293 289 289 293 294 292 289 295 290 288 287 286 285 284 285 287 288 289 291 293 294 294 293 291 288 285 285 285 285 285 284 283 283 283 283 282 281 280 279 278 278 277 276 275 274 274 274 274 275 275 274 275 275 277 278 278 277 275 275 274 273 275 277 279 282 284 285 285 285 285 285 285 285 285 285 285 285
286 289 290 288 288 288 288 292 294 295 292 292 294 293 293 293 288 288 286 285 286 285 285 286 286 286 286 289 292 294 294 290 290 287 286 286 286 285 284 283 282 281 281 283 282 282 280 279 278 277 276 274 274 273 272 272 272 271 272 272 272 275 277 277 277 277 275 274 274 274 274 275 278 276 275 276 279 281 283 284 285 284 284 284 284 284
290 291 286 288 288 290 292 289 286 290 292 294 293 292 290 291 291 289 286 287 285 288 286 286 285 287 288 292 289 290 290 288 290 289 287 286 285 284 284 282 282 282 282 281 282 282 280 278 277 276 275 273 272 271 271 270 270 270 271 271 270 275 277 277 276 275 274 273 275 274 275 274 274 272 273 273 275 275 276 278 281 282 281 280 279 280
289 287 288 290 287 287 288 291 291 288 288 293 292 291 291 290 289 291 289 288 286 287 285 286 288 286 286 287 288 290 291 289 287 287 287 286 285 283 282 281 281 282 282 282 281 279 277 275 275 274 273 272 271 271 270 270 269 269 269 268 269 272 277 276 275 275 274 274 274 274 274 275 273 273 274 274 272 273 276 279 282 280 275 274 280 282
290 290 291 288 288 288 293 295 296 295 294 288 291 293 293 292 292 292 292 291 290 289 288 289 288 287 287 287 286 289 289 288 285 286 286 284 283 282 282 281 281 281 280 280 277 275 274 274 273 273 272 271 270 270 270 269 268 268 268 268 269 272 275 276 276 275 274 275 274 273 274 273 274 274 274 273 273 273 272 273 276 282 283 282 281 282
Wind_Speed
6 11 12 16 14 12 10 11 8 6 10 9 7 5 6 5 4 3 3 5 10 5 11 11 10 10 11 9 10 11 7 6 7 8 9 9 10 10 9 9 11 11 13 10 10 10 11 12 11 10 10 11 11 11 13 13 13 14 13 11 13 11 11 10 10 10 10 9 7 7 9 10 8 8 7 8 8 8 8 8 9 8 8 8 9 10
7 12 15 14 13 15 13 10 9 10 3 5 4 5 6 7 8 5 5 2 1 4 4 5 5 9 10 7 9 8 6 10 11 11 11 11 11 10 10 9 10 12 6 6 5 8 9 9 10 10 9 9 12 12 13 15 16 14 13 14 13 10 11 12 12 11 11 11 11 10 10 8 8 8 8 9 8 9 8 9 10 9 9 10 11 10
9 17 17 13 10 10 9 10 11 9 7 6 4 3 4 6 4 1 2 1 0 2 7 2 5 10 9 8 8 7 8 7 10 13 14 13 12 10 9 10 10 7 8 8 10 10 11 11 11 11 11 11 14 13 14 15 13 13 14 14 12 12 13 12 12 11 12 11 10 10 8 10 7 7 8 8 8 8 8 9 10 10 10 11 11 11
14 15 12 13 11 13 10 10 9 8 6 6 4 3 5 4 6 2 2 0 1 4 1 0 4 8 7 7 10 10 7 7 9 12 14 13 14 13 13 13 12 11 11 11 12 12 11 12 12 11 11 13 11 10 11 12 15 12 12 13 14 13 13 12 13 13 12 11 10 10 8 6 8 7 6 7 6 8 8 10 10 10 10 11 11 12
12 8 11 12 11 12 13 11 10 8 8 5 5 3 4 2 3 5 5 2 1 3 1 2 6 9 6 10 11 10 12 14 13 9 10 10 10 11 11 9 11 14 13 12 11 10 10 10 12 14 15 13 13 13 13 13 14 12 16 15 15 13 14 13 13 14 10 9 8 8 5 4 4 2 6 7 9 10 10 10 10 13 11 11 11 12
6 11 12 15 13 9 12 12 12 9 7 6 6 7 5 4 1 1 1 5 2 3 2 2 4 6 4 4 9 9 4 7 8 13 16 14 9 7 9 11 9 9 10 13 14 14 13 13 12 11 12 12 13 14 14 15 15 14 13 13 13 12 12 13 14 14 11 11 11 10 10 10 10 11 10 13 15 12 13 15 12 9 10 11 11 11
5 10 14 16 13 11 10 11 12 10 8 8 7 9 7 4 7 5 1 1 2 4 3 2 7 9 5 8 6 6 5 10 7 7 12 12 13 11 11 10 11 12 10 8 9 9 10 12 11 12 12 13 13 13 12 12 13 13 12 12 13 13 11 11 11 12 11 11 11 13 14 13 13 14 12 12 9 10 10 8 8 10 9 10 11 11
9 13 12 12 13 11 7 10 9 12 7 6 3 9 5 4 3 5 6 3 2 1 3 2 3 3 10 8 6 10 11 12 13 12 8 10 10 12 12 12 11 12 12 12 12 11 11 11 13 14 14 12 13 12 8 8 8 11 13 12 13 11 10 9 9 11 13 13 12 12 12 12 12 14 14 11 10 7 6 8 10 8 9 9 9 10
21 16 17 15 13 11 13 10 6 10 7 4 3 8 9 8 4 6 5 3 0 1 7 2 0 1 6 8 3 3 7 10 14 13 13 11 10 10 11 11 13 14 13 12 10 10 10 11 11 10 10 11 11 10 10 10 11 10 9 8 8 10 10 9 10 12 13 13 13 12 11 11 12 12 10 5 5 7 6 8 9 10 10 10 10 10
6 16 17 17 11 10 9 7 8 13 7 1 6 8 7 9 6 7 4 3 1 2 8 3 3 4 7 9 7 2 6 14 12 11 13 12 11 11 11 10 12 10 8 6 8 9 9 9 9 10 9 9 11 9 8 8 7 7 6 8 9 12 11 11 10 12 14 14 11 11 12 14 12 9 7 5 7 7 7 10 11 11 10 11 11 12
3 8 12 9 12 10 8 6 9 12 4 4 10 9 7 7 5 3 6 4 4 7 7 6 5 5 8 5 10 5 9 8 7 6 8 8 8 7 9 9 8 7 6 6 7 6 6 7 8 7 10 10 8 7 7 8 8 8 9 10 11 13 11 10 12 12 13 13 12 13 13 14 14 12 9 9 10 9 8 11 12 11 12 11 12 11
7 10 9 3 8 4 8 4 2 7 10 9 3 6 8 5 6 5 2 4 2 7 1 8 9 10 10 5 10 9 6 6 7 8 8 5 3 3 4 5 6 7 7 7 5 5 5 3 5 4 6 7 9 8 9 9 9 9 10 10 13 12 12 11 11 11 12 11 13 13 13 15 15 12 11 13 13 12 12 12 12 10 9 11 11 12
8 12 2 5 2 12 6 7 2 5 5 8 9 9 10 2 3 2 2 4 8 7 2 0 4 1 18 8 8 5 8 8 6 7 7 7 5 5 4 4 3 4 4 5 5 5 4 5 5 5 6 5 5 9 11 11 10 10 10 11 12 13 12 11 10 11 12 11 13 15 14 14 12 12 13 13 12 11 12 11 11 10 11 10 10 13
1 2 1 6 4 3 12 13 6 7 7 11 12 10 8 5 2 4 2 2 4 4 4 0 2 7 1 5 14 19 20 12 10 6 4 6 6 5 5 5 3 3 4 5 5 5 5 5 5 5 5 4 5 5 7 7 7 7 8 9 11 13 10 8 8 10 11 13 13 12 12 12 11 12 13 13 13 12 11 11 12 12 11 11 13 13
11 8 8 12 7 5 12 13 14 9 13 11 5 11 8 8 6 7 7 10 9 5 1 3 2 7 5 6 4 17 17 2 3 5 5 5 5 5 3 2 0 2 4 4 5 5 5 6 5 5 5 5 5 5 5 5 5 5 6 7 9 9 7 7 9 7 10 11 12 12 11 12 11 12 12 12 12 12 12 11 11 11 10 11 11 11
15 5 8 13 1 12 11 4 7 9 3 1 4 6 4 9 3 3 4 3 2 1 0 2 7 4 6 2 7 5 6 7 2 5 4 4 2 3 1 2 4 4 4 4 5 5 5 5 5 5 5 5 5 5 4 5 5 6 7 6 8 10 8 8 8 9 10 11 10 10 12 13 12 10 10 10 10 10 10 9 10 11 11 10 10 9
5 7 2 3 3 18 15 11 5 15 11 7 8 11 9 3 4 3 2 0 2 3 8 3 6 6 7 8 11 10 6 9 6 4 4 5 3 2 3 4 4 4 4 3 4 5 5 3 3 4 4 4 3 2 3 3 4 5 6 6 7 7 5 7 7 8 7 8 8 10 11 10 10 10 11 11 11 11 10 10 10 11 11 10 10 10
13 4 2 5 4 1 2 6 6 5 4 7 6 8 4 3 5 4 4 1 0 4 6 4 10 2 2 9 2 8 9 10 5 6 6 5 2 4 4 5 5 5 5 4 3 3 3 3 4 4 3 4 4 5 4 4 4 4 5 5 6 5 6 5 4 5 5 5 6 6 7 7 8 8 9 9 10 9 9 10 10 9 10 10 9 9
8 5 1 2 3 2 4 10 5 4 2 10 11 5 10 4 5 3 2 2 2 4 5 3 5 5 10 10 0 4 10 10 8 6 5 6 6 6 5 5 5 3 2 2 4 4 3 3 3 4 4 4 4 5 5 5 4 4 4 4 4 5 4 4 4 4 4 4 5 5 7 8 9 9 9 9 9 8 9 11 9 9 10 8 7 7
5 6 1 2 3 3 2 9 13 8 3 2 6 9 4 3 1 8 8 3 5 5 1 7 2 8 9 8 10 9 10 12 10 7 9 9 8 7 7 6 6 5 5 5 5 5 4 4 4 4 4 4 5 5 4 4 2 2 2 1 2 2 3 4 5 5 7 7 7 8 7 7 7 7 7 7 7 8 9 9 8 8 7 8 5 7
5 3 8 3 1 3 7 5 13 16 12 6 9 8 4 1 2 3 1 5 5 4 4 3 6 8 7 7 9 13 11 13 14 12 9 8 8 9 9 9 7 6 6 5 5 5 4 4 4 4 4 4 2 1 1 2 3 4 2 4 4 6 7 7 7 6 8 5 7 6 8 7 5 5 5 5 5 6 7 7 7 7 6 5 7 5
3 4 9 5 5 7 8 10 7 14 16 16 16 14 14 12 7 10 8 0 2 3 6 5 13 4 7 3 10 12 10 7 7 10 9 8 10 11 8 7 7 6 6 6 5 5 5 4 3 2 1 0 1 1 2 4 3 4 5 6 5 5 6 7 8 7 7 5 4 5 5 5 4 4 4 5 5 6 5 5 5 5 5 5 6 5
5 3 9 11 10 13 8 2 1 2 5 1 5 8 10 5 3 3 7 7 2 4 3 2 3 11 6 4 6 9 8 10 10 10 10 10 10 9 9 7 6 6 7 7 6 5 4 4 4 3 3 3 4 5 5 4 5 5 5 5 6 6 9 7 6 4 3 4 4 5 4 4 5 4 5 5 5 5 5 5 5 4 4 5 5 5
9 4 9 3 5 3 3 1 2 2 7 3 2 3 6 10 13 12 7 4 8 2 4 2 5 7 3 1 3 6 6 7 7 10 11 10 8 8 8 7 8 6 6 5 5 4 4 2 1 1 2 4 4 5 5 5 4 5 5 6 5 7 5 3 3 3 3 4 4 4 4 5 4 5 5 5 4 5 5 5 5 4 4 4 4 4
4 3 11 7 5 1 3 3 0 2 2 4 7 9 14 14 12 3 4 2 3 8 10 9 11 11 4 1 2 3 5 6 7 6 10 11 7 10 9 8 7 7 6 6 5 5 2 1 2 4 4 4 5 4 4 4 5 5 5 3 4 4 3 3 2 2 2 2 3 4 4 5 5 5 5 5 4 5 5 4 4 4 5 4 4 4
4 6 13 13 15 13 13 14 12 8 12 10 11 15 12 16 17 10 8 3 9 3 7 4 10 10 2 1 1 1 2 2 3 4 5 9 13 11 8 8 9 7 7 7 6 3 5 5 3 3 4 5 5 5 4 4 4 3 3 4 3 4 4 3 1 0 0 1 2 3 4 4 4 4 4 4 4 4 4 5 5 5 5 4 5 4
0 2 10 13 18 19 17 13 11 12 7 5 6 15 19 15 12 9 3 6 12 4 9 11 15 17 6 8 2 1 5 6 5 4 7 5 6 9 10 10 9 9 9 9 8 7 2 1 5 5 5 5 5 4 4 4 4 4 3 4 4 4 4 3 1 1 0 1 1 2 3 4 4 4 4 4 4 5 4 5 4 4 5 5 5 5
1 1 10 8 11 6 1 3 8 17 19 20 21 19 13 11 13 17 15 17 14 6 8 13 20 19 20 4 6 7 7 8 8 9 8 6 8 12 12 8 7 6 7 5 4 4 6 6 5 5 5 5 5 4 4 4 4 4 4 4 4 4 4 4 3 2 1 0 2 2 3 3 3 3 4 4 4 4 4 4 4 4 4 4 4 4
6 7 8 8 10 2 2 10 13 13 16 19 23 23 25 22 20 19 19 22 12 12 19 27 19 14 21 9 9 11 11 12 12 12 13 13 9 5 5 7 9 11 9 7 8 7 6 6 6 6 6 7 5 5 4 3 3 3 3 4 4 3 5 4 3 3 3 3 3 3 3 3 3 3 3 3 3 3 4 4 4 4 5 4 5 4
4 6 2 7 10 8 2 7 12 15 12 11 14 16 18 20 22 23 24 24 19 14 21 24 12 15 24 8 12 11 9 9 9 5 1 2 6 9 8 9 11 11 11 11 9 8 7 7 6 7 7 6 6 6 4 4 4 4 4 4 4 4 4 4 4 4 4 3 3 3 3 3 4 3 3 3 3 3 3 3 4 4 4 4 3 3
6 4 9 4 7 10 6 4 7 14 14 15 15 19 19 18 19 22 21 21 17 19 21 23 17 17 9 7 10 8 9 5 2 4 7 10 8 7 10 12 12 13 13 10 8 8 7 7 7 6 6 7 6 6 6 5 4 2 3 3 3 4 4 5 4 4 3 3 2 3 3 1 1 3 4 4 3 3 3 3 3 3 3 3 4 4
10 3 5 4 6 7 7 8 9 10 14 16 17 17 17 18 19 20 20 21 19 21 24 18 13 17 19 10 5 4 3 7 10 10 10 9 9 11 13 13 12 13 12 10 10 8 6 6 7 8 9 7 6 5 5 4 3 3 1 1 1 2 3 4 4 3 2 2 3 3 3 2 2 3 3 3 3 3 3 2 3 3 3 3 4 3
10 7 7 6 6 10 9 14 12 7 5 9 14 18 23 25 26 25 25 21 15 17 18 17 21 25 3 11 10 7 9 11 11 12 11 11 13 13 13 14 14 13 12 12 11 9 8 9 10 11 9 6 5 5 5 4 4 3 3 2 1 3 4 3 3 2 1 1 3 3 3 3 3 3 2 3 2 2 2 1 2 3 3 3 3 3
9 11 6 6 9 8 9 9 6 6 16 15 17 29 31 30 29 23 20 21 20 21 17 19 22 7 5 6 13 11 11 12 15 15 14 14 12 10 12 12 13 14 13 10 9 10 11 9 8 8 8 8 7 6 5 4 4 4 3 4 3 3 3 3 2 2 0 1 3 3 3 3 2 3 3 2 1 1 1 1 2 2 2 2 2 2
6 11 8 6 7 8 8 10 9 16 15 13 5 8 14 16 17 23 24 22 21 22 21 20 19 11 4 8 9 12 15 16 15 16 13 11 12 14 15 13 13 12 13 11 10 10 10 11 8 6 6 7 8 6 6 4 5 4 4 4 4 3 5 4 3 1 0 0 1 1 2 2 3 3 2 1 1 1 1 2 2 2 2 1 2 2
1 5 2 4 3 3 6 10 8 10 4 1 8 12 13 15 17 15 20 22 24 26 26 26 22 14 9 9 7 7 9 11 8 9 13 12 12 13 11 12 12 13 13 10 12 12 10 9 11 11 10 6 7 5 5 6 4 5 4 3 5 4 4 3 3 1 0 1 2 2 2 2 2 2 2 2 1 2 2 2 1 2 1 1 1 1
11 2 3 3 3 8 5 10 11 3 3 1 0 8 16 19 20 21 19 25 22 14 13 17 20 18 15 17 13 8 3 2 6 11 7 11 10 8 12 14 17 17 12 11 12 12 10 10 10 9 7 6 6 7 5 4 4 6 6 6 5 5 4 3 3 1 1 1 1 2 2 2 2 2 2 2 2 2 2 2 2 2 0 1 1 2
13 11 3 2 2 2 0 6 2 2 10 8 19 11 18 19 12 7 8 19 9 18 20 22 25 24 24 20 11 7 0 4 11 15 10 9 11 10 11 13 12 8 10 10 4 4 5 5 5 6 9 9 6 5 5 5 6 7 7 6 5 5 4 3 3 1 0 0 1 2 2 2 2 2 2 1 1 2 2 1 1 1 0 1 2 2
9 13 11 8 6 3 3 4 5 9 13 14 15 9 6 6 16 12 5 18 16 18 21 24 25 23 21 18 14 7 6 12 18 18 9 11 9 13 16 17 12 10 12 12 14 11 8 9 9 9 7 9 8 4 4 6 7 8 7 6 6 5 5 4 3 1 0 0 0 1 1 1 1 1 1 1 1 1 1 1 1 0 0 0 0 1
10 7 7 8 13 13 8 7 7 3 11 4 4 9 11 11 15 12 10 13 27 19 19 22 26 26 20 15 9 12 16 18 22 19 15 17 18 22 20 14 8 9 9 7 6 11 12 9 9 7 8 9 7 5 6 6 8 8 8 5 4 5 5 4 3 2 2 3 4 3 3 1 1 0 0 0 0 0 0 0 1 1 1 1 1 1
9 6 11 15 13 12 11 6 4 8 10 6 2 4 15 13 14 14 15 24 7 16 17 18 24 21 15 12 13 16 19 22 25 12 17 16 17 18 10 6 10 12 13 11 11 8 10 7 8 10 8 6 5 5 6 7 10 8 6 6 6 4 2 1 4 4 3 4 3 3 3 2 2 2 2 1 1 1 2 2 1 2 1 1 2 2
6 6 1 8 12 11 9 11 11 11 9 5 6 14 14 12 12 15 23 10 10 19 16 20 18 15 12 15 15 18 20 24 26 16 12 17 19 18 10 7 5 4 4 3 8 10 9 7 8 9 7 4 3 4 5 8 10 8 7 6 5 2 1 2 5 5 3 3 3 3 3 3 3 2 2 2 2 3 3 3 3 2 2 2 3 3
11 7 9 10 6 3 4 7 5 12 9 19 11 5 9 13 16 18 4 2 5 6 12 13 17 14 17 18 23 23 24 22 23 24 12 7 8 10 8 9 10 11 12 10 7 5 11 10 9 8 6 3 1 3 5 10 11 8 6 7 2 1 2 3 5 5 4 4 4 4 4 3 3 3 3 3 2 4 4 3 3 3 3 3 3 3
11 11 7 7 8 8 9 11 12 14 2 18 20 15 14 15 3 5 5 10 2 8 8 7 7 9 14 17 18 21 23 23 14 3 6 6 6 5 6 7 6 7 6 4 7 10 9 11 9 9 5 2 1 3 5 11 11 8 8 5 0 2 4 6 6 5 4 4 4 3 4 4 4 3 3 3 3 4 4 4 3 3 3 3 3 3
13 12 10 12 9 10 11 14 12 2 9 12 14 12 15 18 4 1 7 8 4 4 5 7 10 8 11 15 17 19 21 19 12 9 11 12 11 11 12 11 12 13 13 13 12 9 8 13 13 10 7 3 3 4 5 7 12 10 9 2 2 3 6 6 7 6 5 4 3 4 3 3 3 3 3 3 3 4 4 3 3 4 2 3 3 3
13 19 8 9 11 11 10 12 1 8 5 9 5 2 3 13 11 4 4 4 6 6 7 8 7 10 14 17 18 15 14 13 10 6 6 8 10 6 5 7 6 5 7 9 10 9 11 12 11 11 10 5 3 5 5 5 8 12 6 3 3 4 6 7 7 6 5 4 4 3 2 3 3 3 3 3 2 3 3 3 3 3 2 3 3 3
3 5 8 10 3 11 12 13 17 19 6 6 8 8 8 4 8 6 4 3 2 3 3 5 5 5 7 7 11 12 13 10 8 7 5 5 8 10 11 11 9 11 14 14 11 14 13 12 12 11 10 10 4 5 5 7 7 7 5 4 3 5 6 7 7 7 5 5 4 3 3 4 3 3 3 2 3 3 2 3 2 3 3 2 2 2
9 5 10 8 10 16 13 15 19 18 7 7 11 12 11 8 4 4 4 3 2 1 2 2 1 4 3 7 11 12 12 6 8 8 9 10 11 11 11 11 13 10 5 8 11 10 10 12 13 12 11 10 6 4 5 7 7 5 5 4 4 6 7 7 7 7 6 5 5 4 4 4 5 4 5 4 4 4 4 4 3 4 4 4 4 3
10 15 11 8 9 10 14 10 1 6 10 19 17 9 5 4 5 3 5 6 5 3 1 1 4 4 6 7 5 6 6 7 10 13 13 8 8 9 11 11 10 11 14 14 11 9 11 12 12 11 12 10 6 6 7 7 6 5 6 4 4 6 8 8 6 7 7 5 6 6 4 4 5 4 5 4 5 5 4 5 5 4 4 3 4 4
7 13 5 10 14 13 15 17 10 10 13 19 12 7 9 10 6 7 6 8 6 3 3 5 6 3 3 4 7 9 11 9 7 8 11 11 11 10 9 10 10 12 11 9 9 9 8 7 11 13 12 8 6 6 8 7 6 4 4 4 3 5 8 8 8 8 7 6 6 5 5 5 5 5 6 5 5 4 4 6 7 6 4 4 7 8
16 13 13 16 15 17 21 23 17 16 15 3 8 14 15 12 9 9 10 9 8 8 7 6 8 6 5 6 5 8 8 9 10 8 9 9 10 10 11 14 14 12 12 12 13 11 11 10 10 12 12 9 7 8 8 7 5 5 4 3 2 6 7 8 8 7 7 7 6 6 5 5 6 6 6 6 6 5 5 5 6 8 9 7 7 8
Wind_Direction
144 174 191 202 198 186 192 191 196 198 161 176 187 162 194 182 255 260 219 221 192 174 217 211 219 237 248 243 246 248 238 240 237 227 226 224 224 223 224 215 212 212 215 213 206 200 198 197 197 195 189 193 192 189 186 187 190 188 186 178 191 190 184 180 183 188 187 188 193 203 203 209 204 207 206 211 211 212 213 210 209 201 201 196 198 201
150 188 213 206 187 181 186 181 198 233 167 219 156 171 208 182 220 244 224 256 133 167 268 245 242 247 251 252 246 249 240 233 225 231 230 225 221 218 216 217 214 217 226 212 218 219 207 199 196 191 191 188 188 200 190 192 195 193 188 189 189 183 190 191 189 188 193 195 195 192 201 198 198 199 202 210 210 212 211 210 210 206 200 197 198 198
186 209 205 190 176 173 186 185 199 220 212 223 202 185 175 226 197 340 9 45 280 194 270 280 240 260 261 257 258 248 235 229 219 219 222 219 223 222 220 217 214 213 217 210 212 204 202 201 195 190 194 196 197 194 195 197 192 194 195 197 189 190 190 195 191 188 197 198 198 194 194 189 197 205 203 207 206 205 210 212 211 208 203 199 200 195
194 217 193 173 172 175 187 189 192 218 232 223 198 169 199 224 163 261 302 303 253 169 229 345 305 275 270 259 259 255 245 246 236 223 224 216 217 216 216 213 211 211 212 213 211 210 206 199 195 192 194 198 196 192 199 197 198 197 199 198 196 195 193 193 196 196 198 195 197 203 197 195 194 194 198 207 208 209 210 219 212 213 205 201 201 197
194 164 154 163 182 179 183 185 192 199 222 221 195 179 171 176 206 165 225 207 253 306 19 360 315 285 236 259 260 246 241 246 245 249 245 237 229 223 226 222 210 208 208 214 218 218 207 204 202 197 199 193 192 196 196 197 199 200 202 199 196 195 197 197 194 194 185 180 189 194 196 190 208 222 197 204 220 212 213 218 214 216 205 202 203 200
160 147 148 170 178 178 176 189 199 185 212 225 231 187 174 168 134 28 133 125 36 322 268 120 349 285 286 266 261 272 286 255 251 244 246 243 234 230 235 229 227 229 213 207 210 210 208 206 208 209 204 196 199 199 200 199 200 200 202 198 198 201 201 203 198 190 180 182 182 180 187 198 203 211 207 210 211 205 207 213 215 211 207 207 207 203
164 156 154 169 177 183 187 193 195 179 193 194 239 176 172 143 101 115 115 96 258 232 287 98 194 277 315 299 274 279 293 278 279 242 249 243 242 233 228 221 218 217 226 232 227 217 209 212 207 208 204 202 203 210 205 202 202 202 202 199 199 201 204 203 199 190 189 191 193 192 197 201 203 211 220 220 217 212 217 216 213 215 210 211 210 209
144 160 158 162 169 175 190 205 196 178 162 214 232 159 171 168 148 133 116 138 211 259 319 30 128 247 300 264 246 269 274 276 282 273 248 243 238 233 231 222 218 218 215 209 215 215 215 211 203 205 208 203 207 207 201 208 211 206 205 199 200 202 204 202 194 191 195 199 201 202 206 207 212 215 223 213 217 215 208 209 216 211 216 214 214 214
161 169 167 164 168 181 197 202 181 182 169 222 191 166 185 193 157 121 104 118 140 57 280 311 69 289 250 271 293 312 301 279 260 257 260 246 235 238 233 223 219 218 214 207 206 210 210 213 217 217 209 210 209 206 201 200 203 209 209 201 200 205 205 202 190 193 199 203 203 205 208 214 223 224 231 215 208 211 201 211 215 214 216 217 218 216
157 172 175 164 161 185 196 194 174 186 172 262 88 75 79 83 76 96 92 78 352 69 249 202 171 232 274 283 284 283 247 258 251 249 248 249 237 226 226 229 226 224 224 222 217 212 211 214 217 214 213 209 212 208 205 206 201 199 194 197 197 209 208 202 194 194 200 203 201 205 211 217 223 221 228 199 216 216 199 215 216 214 214 215 217 220
127 158 149 155 185 188 165 186 174 184 168 160 95 85 64 50 66 48 69 94 48 267 245 188 213 173 286 254 236 186 221 221 262 263 249 251 256 246 234 228 225 224 226 226 229 229 221 219 215 206 205 211 210 208 197 201 198 196 196 200 203 211 209 201 200 195 200 200 200 209 211 216 223 217 211 215 225 219 210 217 218 214 216 212 216 216
121 142 163 230 163 123 152 173 344 159 147 126 98 126 91 19 24 39 2 53 155 256 271 208 201 172 219 283 267 237 262 237 212 233 238 232 226 223 205 211 213 210 216 221 208 213 214 230 236 206 219 213 208 198 201 204 199 198 200 199 206 213 209 204 203 199 203 196 204 211 212 215 220 213 210 216 223 218 220 222 223 219 217 217 216 214
138 168 181 132 328 149 149 120 11 126 148 110 118 123 134 179 65 278 66 215 215 227 234 191 180 26 241 220 259 275 238 263 228 217 185 173 178 162 151 156 151 156 146 166 188 193 200 200 214 217 223 205 204 201 204 204 200 200 200 198 203 215 211 207 200 201 204 202 205 210 213 218 218 215 218 221 225 221 221 222 225 217 219 219 217 219
208 351 159 151 147 216 152 170 154 158 194 147 158 152 140 121 150 203 228 297 298 279 252 95 163 245 299 262 229 259 261 232 251 244 210 188 178 184 182 177 178 178 178 195 205 213 218 220 228 227 233 225 213 216 213 209 201 200 199 200 204 218 210 208 201 204 207 210 213 213 214 218 214 217 219 222 225 225 223 221 225 221 221 219 221 222
148 174 221 158 204 185 180 185 177 158 164 172 133 163 173 154 160 195 176 196 209 211 218 265 107 235 127 249 231 230 249 299 224 245 227 225 194 183 169 154 309 245 242 225 229 223 218 221 211 213 214 217 214 213 212 204 205 191 203 197 207 220 216 204 209 206 211 216 218 217 216 217 215 219 220 224 226 227 226 226 229 230 229 227 229 227
179 159 186 182 191 165 179 147 118 109 63 335 142 76 131 209 131 150 196 136 176 159 140 206 210 191 185 269 291 243 283 294 273 246 210 199 180 111 108 173 207 237 248 240 225 238 243 228 215 214 216 215 215 218 209 203 193 191 203 198 206 211 209 202 207 209 211 217 216 217 219 219 220 221 223 229 228 233 231 232 229 234 231 232 233 230
160 211 206 139 332 177 179 155 170 152 176 194 140 196 200 123 90 106 28 320 94 57 247 173 295 288 298 298 262 273 258 259 265 260 229 208 196 134 179 234 243 232 213 220 208 216 236 256 254 222 210 226 231 238 235 219 199 199 200 204 218 222 219 215 215 217 217 222 218 223 222 223 223 222 225 229 232 231 230 230 230 231 231 230 228 229
166 154 313 154 120 309 120 139 154 174 111 94 168 198 95 92 113 122 193 2 136 194 262 141 226 289 8 276 265 231 235 244 243 230 220 235 215 173 211 217 217 210 220 224 232 237 225 215 223 238 239 212 208 214 226 237 219 192 192 197 212 227 229 240 235 242 238 235 236 238 237 236 231 230 230 229 233 227 226 229 232 231 233 231 229 223
120 86 257 285 149 85 102 112 150 310 336 169 180 168 145 218 231 249 117 221 172 234 271 265 243 252 201 237 347 202 220 239 236 229 215 218 212 189 209 227 229 238 235 240 234 229 238 232 236 231 223 229 218 211 211 225 224 215 213 208 196 225 233 233 236 237 248 235 236 233 232 228 230 227 229 230 230 227 228 232 232 233 237 239 232 228
186 121 153 337 139 166 98 156 185 205 293 45 100 173 180 97 232 154 201 169 120 249 287 292 86 241 199 219 192 225 206 215 214 205 210 202 191 183 200 200 199 202 210 212 218 221 222 229 225 216 216 223 224 220 224 225 240 249 263 270 260 270 257 251 243 231 234 228 217 229 227 232 228 232 234 237 236 239 241 243 242 241 243 237 226 225
177 119 158 186 91 126 183 200 190 178 171 159 172 185 194 131 236 121 114 138 167 175 191 256 298 260 253 215 188 217 204 206 197 198 204 195 190 189 192 187 194 199 203 210 210 215 222 224 235 239 229 227 228 234 203 192 203 225 241 239 233 225 238 238 238 233 238 234 238 235 237 241 243 248 250 252 244 246 247 249 244 244 239 235 234 221
106 192 165 140 181 201 202 203 208 191 185 183 179 189 180 164 135 164 237 78 127 149 226 168 252 265 270 185 206 219 217 203 205 185 191 189 192 191 197 201 186 191 213 207 215 215 216 226 241 255 288 360 110 212 219 228 217 231 226 226 230 235 238 236 243 235 244 245 265 264 275 280 281 276 273 265 261 254 256 253 251 248 252 241 244 220
153 128 124 177 189 191 193 150 138 208 193 47 173 188 175 163 97 124 196 232 191 237 117 153 315 270 230 235 218 218 204 201 195 182 182 191 193 191 195 193 203 199 194 207 215 218 217 210 209 199 192 198 206 220 218 225 214 223 229 227 228 222 238 228 245 269 277 270 266 268 276 288 289 298 289 289 284 286 281 279 276 278 256 254 252 241
62 113 122 33 39 346 1 327 43 83 121 150 194 92 148 189 194 200 199 180 182 208 217 281 254 256 299 278 252 206 215 205 187 173 180 187 187 190 187 194 198 211 230 236 237 243 230 222 247 205 237 239 240 231 225 214 216 223 224 224 223 234 261 294 293 286 289 291 293 311 319 307 311 316 305 303 297 297 296 296 292 296 287 269 262 253
178 240 142 134 114 70 351 343 148 337 184 187 188 193 193 196 198 179 92 73 168 216 187 186 236 254 263 229 9 97 118 158 181 208 175 169 196 191 191 196 200 204 211 225 228 230 253 275 224 223 227 225 228 227 216 215 217 219 231 233 236 253 265 265 284 289 311 350 339 340 343 324 330 322 310 303 303 301 307 307 305 307 295 292 290 263
238 158 156 168 166 174 188 194 188 175 201 196 200 193 198 190 192 182 212 175 215 263 140 201 249 249 240 31 56 52 108 121 218 198 213 189 178 184 199 195 202 200 207 212 224 236 231 223 230 255 248 243 235 216 211 220 225 230 244 241 232 242 264 262 279 106 39 40 18 346 342 332 339 334 321 316 315 309 311 307 302 300 296 294 291 282
256 266 199 188 186 196 195 197 192 159 103 102 150 190 199 201 189 195 168 215 213 200 186 222 226 251 183 231 142 217 175 179 187 224 182 200 214 200 191 192 194 197 203 209 209 215 222 256 240 230 247 236 233 216 208 206 222 230 235 262 258 231 222 227 177 129 103 42 13 328 318 320 320 313 313 317 317 317 321 316 306 292 280 277 268 270
60 289 235 226 228 230 151 120 135 151 170 186 185 194 186 171 174 192 198 216 207 116 244 237 228 236 239 166 207 192 210 203 198 194 201 193 187 193 201 199 199 210 224 227 234 219 207 215 235 248 242 240 240 227 229 221 209 206 205 229 246 237 216 214 173 174 159 160 267 253 261 264 267 283 282 284 286 303 314 311 308 306 302 308 297 285
139 207 229 240 247 284 124 149 160 178 195 190 187 182 188 185 183 191 210 224 191 190 218 233 224 231 254 191 209 201 194 200 203 204 201 194 191 182 171 191 202 211 218 216 222 216 210 206 224 229 229 228 231 239 241 244 250 238 242 238 240 218 215 194 166 179 189 206 226 237 234 243 263 271 283 288 285 272 272 285 297 310 319 321 312 304
118 230 165 206 247 251 280 179 172 177 189 200 200 199 195 190 192 198 211 215 205 211 229 245 236 221 243 195 207 207 214 211 217 214 167 171 201 196 194 202 207 210 212 214 215 217 210 212 217 221 212 217 217 223 233 244 243 235 220 240 233 208 228 153 180 173 195 209 227 236 232 251 263 270 282 281 284 297 304 302 303 307 309 309 303 294
164 215 156 181 218 236 235 267 204 185 186 200 199 200 199 196 201 208 213 218 211 227 237 241 246 259 246 178 214 205 207 199 211 186 201 209 208 196 202 209 211 212 215 212 214 221 214 213 218 219 206 211 210 210 209 211 216 217 220 236 228 219 208 162 156 174 182 217 231 234 242 244 331 337 322 309 310 307 316 309 305 304 302 300 308 317
183 255 128 143 208 233 207 214 220 205 193 197 199 197 194 195 206 210 216 215 200 211 227 236 251 250 248 161 204 200 184 189 200 205 211 218 212 208 209 212 212 216 215 210 213 216 214 216 212 204 205 211 211 211 204 210 206 164 167 224 223 223 156 140 147 159 187 217 229 234 212 199 248 263 276 301 296 297 291 302 320 317 312 312 317 317
185 172 160 162 201 230 198 199 202 198 209 221 205 192 195 204 205 208 216 216 205 207 219 218 227 232 150 166 183 204 205 212 210 205 211 214 213 209 207 210 214 215 214 209 207 208 207 205 200 197 202 194 198 195 210 179 145 161 186 151 163 116 114 120 135 141 167 263 262 238 208 214 223 251 269 273 273 283 313 326 321 324 330 316 303 321
187 190 189 174 204 222 166 168 142 174 208 212 198 199 193 200 203 207 214 216 209 207 219 217 230 219 162 183 184 198 203 212 210 215 204 198 208 214 219 216 214 214 215 212 201 198 205 199 199 199 189 183 189 181 169 166 155 174 174 146 130 106 110 119 129 135 184 235 248 230 219 210 219 237 248 256 268 282 295 315 294 291 289 299 334 331
221 191 193 169 201 220 145 141 181 217 218 226 248 209 203 208 203 212 220 219 215 218 228 235 237 216 183 180 193 198 207 214 209 210 211 212 198 200 205 210 215 217 216 206 206 208 197 192 188 173 174 168 164 163 132 110 123 130 110 120 96 89 95 69 81 71 12 291 274 237 215 209 215 235 253 237 224 233 255 269 291 313 313 321 297 305
284 229 142 206 164 61 160 173 206 225 230 11 127 160 195 207 214 209 235 230 218 215 215 227 233 228 216 230 227 216 209 224 236 232 217 209 198 199 198 207 215 216 213 198 197 203 192 186 172 176 183 170 139 146 143 153 153 117 124 99 104 90 85 92 92 124 313 280 282 250 231 217 234 243 236 224 231 236 256 271 279 291 304 331 330 334
143 97 302 293 196 204 171 186 210 24 23 282 224 189 175 198 201 195 215 233 223 220 221 235 240 232 231 231 217 225 249 336 276 257 215 209 219 215 193 206 211 215 197 200 194 195 192 179 171 175 151 149 143 139 147 155 136 124 122 100 91 97 96 99 101 47 19 310 302 274 252 218 222 233 225 225 240 292 324 327 324 316 323 315 344 338
147 187 174 246 280 48 112 203 242 274 240 212 220 203 195 206 201 181 206 263 192 202 209 220 228 226 225 226 214 213 46 308 263 246 209 204 209 206 221 223 222 199 186 196 188 167 159 150 135 145 148 137 129 145 147 146 134 127 120 120 109 107 111 106 91 75 215 257 285 280 248 216 205 214 223 212 248 298 310 310 329 311 327 328 320 320
187 184 178 197 279 358 304 265 232 212 234 224 226 181 180 117 108 108 157 254 235 192 207 214 226 229 222 221 206 156 183 235 242 241 159 186 206 215 213 222 207 186 187 180 169 165 164 163 154 150 131 127 133 170 159 147 136 125 127 132 131 125 122 120 131 144 109 323 261 268 244 198 184 194 192 205 242 239 272 261 264 295 72 78 109 306
165 169 139 191 226 235 261 265 259 238 256 265 144 163 162 120 111 107 198 249 248 180 201 203 222 225 218 213 166 177 201 225 237 240 153 178 198 221 219 212 175 190 195 182 177 162 156 145 124 128 139 143 157 167 158 146 126 122 127 132 120 106 123 134 123 113 71 71 58 57 52 76 122 141 149 214 332 116 193 124 84 56 72 43 76 61
177 177 184 199 211 224 206 255 305 268 254 211 235 148 138 134 124 173 205 229 252 148 193 198 219 222 207 199 173 206 214 220 234 221 152 191 208 224 237 195 185 181 177 171 166 147 141 157 149 150 146 142 152 161 154 136 119 117 119 113 95 85 80 175 127 97 65 65 63 54 50 45 63 78 78 114 130 124 86 76 83 69 66 66 53 64
190 157 258 195 212 215 199 227 241 269 243 148 187 156 147 126 192 198 222 219 118 170 191 196 211 212 181 187 194 212 221 220 234 229 185 197 206 218 203 178 135 74 54 95 141 143 131 123 111 107 100 101 140 159 145 125 113 115 110 98 83 45 329 101 117 103 88 78 66 66 56 51 43 53 74 83 104 91 78 69 92 89 92 81 71 64
178 167 192 187 179 147 145 205 253 265 253 154 124 153 189 179 209 214 222 48 162 173 188 201 205 200 182 199 205 210 223 227 225 230 203 201 202 213 182 168 164 160 155 145 146 155 138 127 123 114 113 106 132 134 128 115 112 112 107 93 78 337 49 89 109 99 89 81 73 65 62 59 55 44 46 60 78 99 85 79 76 70 78 79 73 69
155 199 184 203 183 175 173 186 210 228 51 137 146 183 207 219 193 166 190 238 243 183 191 204 224 206 194 202 207 219 225 231 233 122 136 162 176 178 169 168 156 148 144 128 136 143 129 119 116 112 93 81 79 96 116 121 120 118 107 98 265 93 95 98 96 95 83 77 73 68 63 59 52 50 51 63 79 82 89 76 83 82 81 85 86 78
179 201 167 198 185 192 200 214 217 160 179 182 176 193 199 214 228 206 205 213 177 270 198 190 218 212 196 203 214 218 226 231 220 181 168 182 173 173 171 173 168 166 161 151 146 138 129 132 130 119 107 92 82 86 100 123 124 120 111 142 113 108 113 113 108 109 107 98 94 94 98 87 81 76 69 73 90 92 93 84 91 87 69 83 79 80
169 202 186 192 208 214 238 224 225 258 224 235 268 298 211 213 214 171 177 203 223 215 174 193 217 218 212 207 211 223 223 224 202 189 193 171 171 161 136 130 122 120 122 124 127 133 127 120 117 121 122 104 82 92 94 101 118 115 132 141 116 120 121 116 114 110 111 106 100 93 86 88 81 71 73 79 84 101 113 119 108 102 104 93 95 96
286 179 169 215 149 179 236 225 230 231 191 222 239 253 242 240 236 210 207 207 219 211 224 232 228 228 203 183 198 213 223 221 199 190 171 150 160 166 165 159 154 156 154 150 147 136 133 132 128 132 134 115 107 99 98 96 83 97 114 106 104 109 117 113 113 109 103 98 86 60 60 68 64 54 39 39 48 47 57 62 78 90 91 95 94 95
237 184 207 199 181 198 229 220 228 236 214 226 224 227 240 246 272 249 220 227 233 173 184 229 246 247 185 187 202 202 217 194 172 177 178 183 177 169 165 159 152 137 119 124 136 137 130 135 136 139 133 117 125 114 100 89 82 78 79 78 84 110 109 107 109 107 101 86 80 70 65 60 51 55 40 24 33 35 26 22 27 46 38 38 31 44
175 158 212 151 205 224 244 255 27 212 220 232 227 224 213 203 232 241 229 226 253 269 292 200 185 210 187 214 193 189 190 207 195 184 179 170 163 168 167 159 153 145 141 144 148 149 145 142 138 138 127 123 128 118 100 91 82 70 67 60 75 113 111 109 102 97 87 79 77 67 60 64 58 52 59 45 40 30 40 45 31 44 48 25 31 47
143 196 151 163 220 218 222 226 190 218 229 235 221 193 225 230 197 220 221 235 229 225 247 260 283 280 240 218 178 177 191 201 196 169 171 173 171 158 145 143 142 138 138 132 128 125 116 124 134 129 121 117 119 106 98 88 76 64 58 65 83 119 115 114 103 95 88 85 83 72 65 58 53 50 50 47 37 37 21 21 43 43 59 12 5 20
188 179 173 201 204 221 226 229 212 221 242 235 191 200 200 199 201 216 229 226 226 219 215 210 233 271 265 245 209 190 191 179 185 163 153 158 164 160 152 147 145 145 136 137 129 125 126 133 129 120 116 120 118 105 99 90 73 67 45 55 88 125 123 121 111 101 94 88 82 78 77 68 60 46 52 45 43 34 31 5 1 26 39 39 29 29